Appleton, MN

7:40 AM CDT on October 20, 2017 (GMT -0500)
Appleton Municipal

Weather History for KAQP - February, 2013

Change the Weather History Date:

Sunday, February 3, 2013

  Actual Average Record
Temperature  
Mean Temperature 10 °F -  
Max Temperature 15 °F 22 °F 42 °F (2005)
Min Temperature 6 °F 5 °F -18 °F (2004)
Degree Days  
Heating Degree Days 54    
Moisture  
Dew Point 7 °F    
Average Humidity 81    
Maximum Humidity 92    
Minimum Humidity 68    
Precipitation  
Precipitation 0.00 in - - ()
Sea Level Pressure  
Sea Level Pressure 30.02 in    
Wind  
Wind Speed 9 mph (NNE)    
Max Wind Speed 25 mph    
Max Gust Speed 30 mph    
Visibility 8 miles    
Events Snow    
Averages and records for this station are not official NWS values.
T = Trace of Precipitation, MM = Missing Value Source: NWS Daily Summary

Daily Weather History Graph

Daily Weather History Graph

Search for Another Location

Airport or City:

Trip Planner

Search our weather history database for the weather conditions in past years. The results will help you decide how hot, cold, wet, or windy it might be!

Date:

Astronomy

Feb. 03, 2013 Rise Set
Actual Time 7:41 AM CST 5:34 PM CST
Civil Twilight 7:10 AM CST 6:05 PM CST
Nautical Twilight 6:35 AM CST 6:41 PM CST
Astronomical Twilight 6:00 AM CST 7:15 PM CST
Moon 1:11 AM CST (2/3) 11:10 AM CST (2/3)
Length of Visible Light 10h 55m
Length of Day
9h 53m
Waning Gibbous, 48% of the Moon is Illuminated
Feb 3
Waning Gibbous
Feb 10
New
Feb 17
First Quarter
Feb 25
Full
Mar 4
Last Quarter

Hourly Weather History & Observations

Time (CST) Temp. Windchill Dew Point Humidity Pressure Visibility Wind Dir Wind Speed Gust Speed Precip Events Conditions
12:13 AM 12.2 °F -3.1 °F 8.6 °F 85% 30.08 in 10.0 mi NW 13.8 mph - N/A   Overcast
12:33 AM 12.2 °F -7.9 °F 8.6 °F 85% 30.09 in 7.0 mi NW 25.3 mph 29.9 mph N/A Snow Light Snow
12:53 AM 12.2 °F -5.3 °F 6.8 °F 79% 30.10 in 10.0 mi NW 18.4 mph - N/A   Scattered Clouds
1:13 AM 10.4 °F -8.6 °F 6.8 °F 85% 30.11 in 10.0 mi NW 20.7 mph - N/A   Clear
1:33 AM 10.4 °F -6.6 °F 5.0 °F 79% 30.10 in 10.0 mi NW 16.1 mph - N/A   Clear
1:53 AM 8.6 °F -7.0 °F 3.2 °F 79% 30.09 in 10.0 mi NW 12.7 mph - N/A   Clear
2:13 AM 6.8 °F -8.6 °F 3.2 °F 85% 30.10 in 10.0 mi West 11.5 mph - N/A   Clear
2:33 AM 8.6 °F -7.0 °F 3.2 °F 79% 30.10 in 10.0 mi WNW 12.7 mph - N/A   Scattered Clouds
2:53 AM 8.6 °F -7.7 °F 3.2 °F 79% 30.11 in 10.0 mi NW 13.8 mph - N/A   Scattered Clouds
3:14 AM 8.6 °F -6.3 °F 3.2 °F 79% 30.11 in 10.0 mi NW 11.5 mph 17.3 mph N/A   Overcast
3:53 AM 8.6 °F 0.1 °F 1.4 °F 73% 30.10 in 10.0 mi WNW 4.6 mph - N/A   Mostly Cloudy
4:13 AM 8.6 °F 2.0 °F 3.2 °F 79% 30.09 in 10.0 mi WNW 3.5 mph - N/A   Overcast
4:33 AM 6.8 °F -2.0 °F 3.2 °F 85% 30.09 in 10.0 mi West 4.6 mph - N/A   Mostly Cloudy
4:53 AM 6.8 °F -4.8 °F 1.4 °F 79% 30.10 in 10.0 mi West 6.9 mph - N/A   Scattered Clouds
5:13 AM 6.8 °F -0.1 °F 1.4 °F 79% 30.08 in 10.0 mi WSW 3.5 mph - N/A   Clear
5:33 AM 8.6 °F 0.1 °F 3.2 °F 79% 30.07 in 10.0 mi WSW 4.6 mph - N/A   Mostly Cloudy
5:53 AM 8.6 °F 0.1 °F 5.0 °F 85% 30.07 in 10.0 mi WSW 4.6 mph - N/A   Overcast
6:13 AM 10.4 °F 4.0 °F 5.0 °F 79% 30.08 in 10.0 mi WSW 3.5 mph - N/A   Overcast
6:33 AM 10.4 °F 2.2 °F 6.8 °F 85% 30.07 in 10.0 mi West 4.6 mph - N/A   Overcast
6:53 AM 10.4 °F - 6.8 °F 85% 30.07 in 10.0 mi Calm Calm - N/A   Overcast
7:13 AM 10.4 °F 0.8 °F 6.8 °F 85% 30.08 in 10.0 mi West 5.8 mph - N/A   Overcast
7:33 AM 10.4 °F 4.0 °F 6.8 °F 85% 30.07 in 10.0 mi West 3.5 mph - N/A   Overcast
7:53 AM 12.2 °F - 6.8 °F 79% 30.07 in 10.0 mi Calm Calm - N/A   Overcast
8:13 AM 12.2 °F - 6.8 °F 79% 30.07 in 10.0 mi Calm Calm - N/A   Overcast
8:33 AM 12.2 °F - 8.6 °F 85% 30.07 in 10.0 mi Calm Calm - N/A Snow Light Snow
8:53 AM 12.2 °F 4.3 °F 8.6 °F 85% 30.07 in 7.0 mi NNW 4.6 mph - N/A Snow Light Snow
9:13 AM 14.0 °F 8.2 °F 8.6 °F 79% 30.07 in 7.0 mi NNW 3.5 mph - N/A Snow Light Snow
9:33 AM 14.0 °F - 8.6 °F 79% 30.07 in 3.0 mi Calm Calm - N/A Snow Light Snow
9:54 AM 14.0 °F - 8.6 °F 79% 30.08 in 7.0 mi Calm Calm - N/A Snow Light Snow
10:14 AM 14.0 °F - 8.6 °F 79% 30.08 in 5.0 mi Calm Calm - N/A Snow Light Snow
10:33 AM 14.0 °F - 8.6 °F 79% 30.07 in 5.0 mi Calm Calm - N/A Snow Light Snow
10:53 AM 14.0 °F - 6.8 °F 73% 30.06 in 10.0 mi Calm Calm - N/A   Overcast
11:13 AM 14.0 °F - 6.8 °F 73% 30.06 in 10.0 mi Calm Calm - N/A   Overcast
11:33 AM 15.8 °F - 6.8 °F 68% 30.06 in 10.0 mi Calm Calm - N/A   Overcast
11:54 AM 15.8 °F - 6.8 °F 68% 30.04 in 10.0 mi Calm Calm - N/A   Overcast
12:13 PM 15.8 °F - 6.8 °F 68% 30.03 in 10.0 mi Calm Calm - N/A   Overcast
12:33 PM 15.8 °F 10.2 °F 8.6 °F 73% 30.02 in 10.0 mi East 3.5 mph - N/A   Overcast
12:53 PM 15.8 °F 8.6 °F 8.6 °F 73% 30.00 in 10.0 mi East 4.6 mph - N/A   Overcast
1:13 PM 15.8 °F 7.2 °F 8.6 °F 73% 30.00 in 10.0 mi East 5.8 mph - N/A   Overcast
1:34 PM 15.8 °F 10.2 °F 8.6 °F 73% 29.99 in 10.0 mi East 3.5 mph - N/A   Overcast
1:54 PM 15.8 °F 10.2 °F 6.8 °F 68% 29.98 in 10.0 mi ESE 3.5 mph - N/A   Overcast
2:13 PM 15.8 °F 8.6 °F 8.6 °F 73% 29.98 in 10.0 mi East 4.6 mph - N/A   Mostly Cloudy
2:53 PM 15.8 °F 8.6 °F 8.6 °F 73% 29.96 in 10.0 mi East 4.6 mph - N/A   Scattered Clouds
3:13 PM 15.8 °F 8.6 °F 8.6 °F 73% 29.95 in 10.0 mi ESE 4.6 mph - N/A   Clear
3:34 PM 15.8 °F 7.2 °F 8.6 °F 73% 29.96 in 10.0 mi East 5.8 mph - N/A   Clear
3:54 PM 15.8 °F 8.6 °F 8.6 °F 73% 29.96 in 10.0 mi East 4.6 mph - N/A   Scattered Clouds
4:13 PM 15.8 °F 8.6 °F 8.6 °F 73% 29.95 in 2.5 mi East 4.6 mph - N/A Snow Light Snow
4:53 PM 14.0 °F 5.1 °F 10.4 °F 86% 29.94 in 3.0 mi East 5.8 mph - N/A Snow Light Snow
5:13 PM 14.0 °F 5.1 °F 10.4 °F 86% 29.94 in 5.0 mi ESE 5.8 mph - N/A Snow Light Snow
5:34 PM 14.0 °F 3.9 °F 10.4 °F 86% 29.94 in 5.0 mi ESE 6.9 mph - N/A Snow Light Snow
5:53 PM 14.0 °F 5.1 °F 10.4 °F 86% 29.95 in 2.5 mi East 5.8 mph - N/A Snow Light Snow
6:13 PM 12.2 °F 2.9 °F 10.4 °F 92% 29.95 in 3.0 mi East 5.8 mph - N/A Snow Light Snow
6:33 PM 12.2 °F 1.7 °F 10.4 °F 92% 29.95 in 4.0 mi East 6.9 mph - N/A Snow Light Snow
6:53 PM 12.2 °F 1.7 °F 10.4 °F 92% 29.95 in 5.0 mi ENE 6.9 mph - N/A Snow Light Snow
7:14 PM 12.2 °F -0.2 °F 8.6 °F 85% 29.92 in 10.0 mi East 9.2 mph - N/A Snow Light Snow
7:33 PM 12.2 °F 1.7 °F 8.6 °F 85% 29.95 in 10.0 mi NE 6.9 mph - N/A Snow Light Snow
7:53 PM 12.2 °F 2.9 °F 8.6 °F 85% 29.95 in 7.0 mi NE 5.8 mph - N/A Snow Light Snow
8:13 PM 12.2 °F -0.2 °F 10.4 °F 92% 29.96 in 7.0 mi NNE 9.2 mph - N/A Snow Light Snow
8:33 PM 12.2 °F 1.7 °F 10.4 °F 92% 29.96 in 5.0 mi NNE 6.9 mph - N/A Snow Light Snow
8:53 PM 12.2 °F 0.7 °F 8.6 °F 85% 29.96 in 4.0 mi NNE 8.1 mph - N/A Snow Light Snow
9:14 PM 12.2 °F 0.7 °F 8.6 °F 85% 29.95 in 4.0 mi NE 8.1 mph - N/A Snow Light Snow
9:34 PM 12.2 °F 0.7 °F 8.6 °F 85% 29.96 in 5.0 mi NE 8.1 mph - N/A Snow Light Snow
9:53 PM 12.2 °F 0.7 °F 8.6 °F 85% 29.95 in 7.0 mi NE 8.1 mph - N/A Snow Light Snow
10:13 PM 12.2 °F 0.7 °F 8.6 °F 85% 29.96 in 5.0 mi NNE 8.1 mph - N/A Snow Light Snow
10:33 PM 12.2 °F 0.7 °F 8.6 °F 85% 29.97 in 5.0 mi NNE 8.1 mph - N/A Snow Light Snow
10:53 PM 12.2 °F 0.7 °F 8.6 °F 85% 29.96 in 10.0 mi NE 8.1 mph - N/A Snow Light Snow
11:13 PM 12.2 °F 1.7 °F 8.6 °F 85% 29.98 in 10.0 mi NNE 6.9 mph - N/A Snow Light Snow
11:33 PM 12.2 °F 1.7 °F 8.6 °F 85% 29.97 in 10.0 mi NE 6.9 mph - N/A Snow Light Snow
11:53 PM 12.2 °F 1.7 °F 8.6 °F 85% 29.98 in 7.0 mi North 6.9 mph - N/A Snow Light Snow